Location: Rio Tanui
(39.9167°N, 8.5167°E)
Time: 02:03:50
(UTC+00:00)

Cosmos 1844 Rocket - Pass Details

Date: 08 February 2023
Orbit: 825 x 843 km, 71.0° (Epoch: 01 April)

Event Time Altitude Azimuth Distance (km) Brightness Sun altitude
Rises 18:00:18 0° 328° (NNW) 3,369 6.2 -13.3°
Reaches altitude 10° 18:02:54 10° 320° (NW) 2,432 5.5 -13.8°
Maximum altitude 18:07:54 35° 255° (WSW) 1,299 4.4 -14.8°
Drops below altitude 10° 18:12:54 10° 191° (S) 2,422 5.3 -15.7°
Sets 18:15:30 0° 183° (S) 3,353 5.9 -16.2°
